| time (UTC) | temp F | wind direction | speed knots | gust knots | rain 1hr in | rain 24hr in | rain mn in | humidity % | barometer mb |
| 20260901200530 | 71 | 46 | 0.9 | 2.6 | 0.00 | 0.00 | 0.00 | 56 | 1016.6 |
| 20260901195530 | 71 | 37 | 0.9 | 1.7 | 0.00 | 0.00 | 0.00 | 56 | 1016.7 |
| 20260901194530 | 71 | 47 | 0.0 | 1.7 | 0.00 | 0.00 | 0.00 | 54 | 1016.6 |
| 20260901193530 | 72 | 34 | 0.9 | 1.7 | 0.00 | 0.00 | 0.00 | 53 | 1016.6 |
| 20260901192530 | 73 | 38 | 0.0 | 1.7 | 0.00 | 0.00 | 0.00 | 51 | 1016.7 |
| 20260901191530 | 73 | 14 | 0.0 | 2.6 | 0.00 | 0.00 | 0.00 | 52 | 1016.8 |
| 20260901190531 | 74 | 40 | 0.9 | 1.7 | 0.00 | 0.00 | 0.00 | 52 | 1016.9 |
| 20260901185531 | 73 | 7 | 0.9 | 1.7 | 0.00 | 0.00 | 0.00 | 47 | 1016.9 |
| 20260901184531 | 71 | 265 | 0.9 | 1.7 | 0.00 | 0.00 | 0.00 | 52 | 1016.9 |
| 20260901183551 | 69 | 30 | 0.0 | 0.9 | 0.00 | 0.00 | 0.00 | 56 | 1016.9 |
| 20260901182531 | 68 | 29 | 0.0 | 0.9 | 0.00 | 0.00 | 0.00 | 57 | 1017.0 |
| 20260901181532 | 68 | 323 | 0.9 | 1.7 | 0.00 | 0.00 | 0.00 | 56 | 1016.9 |
| 20260901180531 | 68 | 294 | 0.0 | 0.9 | 0.00 | 0.00 | 0.00 | 57 | 1016.9 |
| 20260901175516 | 68 | 333 | 0.0 | 0.9 | 0.00 | 0.00 | 0.00 | 59 | 1016.9 |
| 20260901174516 | 67 | 357 | 0.0 | 0.9 | 0.00 | 0.00 | 0.00 | 57 | 1016.8 |
| 20260901173517 | 67 | 359 | 0.0 | 1.7 | 0.00 | 0.00 | 0.00 | 59 | 1016.8 |
| 20260901172552 | 67 | 358 | 0.9 | 1.7 | 0.00 | 0.00 | 0.00 | 59 | 1016.6 |
| 20260901171532 | 67 | 19 | 0.9 | 1.7 | 0.00 | 0.00 | 0.00 | 59 | 1016.5 |
| 20260901170552 | 66 | 318 | 0.0 | 0.9 | 0.00 | 0.00 | 0.00 | 60 | 1016.5 |
| 20260901165517 | 66 | 41 | 0.0 | 1.7 | 0.00 | 0.00 | 0.00 | 60 | 1016.4 |
| 20260901164517 | 66 | 343 | 0.0 | 0.9 | 0.00 | 0.00 | 0.00 | 60 | 1016.5 |
| 20260901163518 | 66 | 16 | 0.0 | 0.9 | 0.00 | 0.00 | 0.00 | 60 | 1016.4 |
| 20260901162518 | 65 | 317 | 0.9 | 1.7 | 0.00 | 0.00 | 0.00 | 61 | 1016.3 |
| 20260901161518 | 65 | 342 | 0.9 | 1.7 | 0.00 | 0.00 | 0.00 | 62 | 1016.3 |
| 20260901160518 | 65 | 307 | 0.0 | 0.9 | 0.00 | 0.00 | 0.00 | 63 | 1016.4 |
| 20260901155538 | 64 | 323 | 0.9 | 2.6 | 0.00 | 0.00 | 0.00 | 64 | 1016.4 |
| 20260901154519 | 64 | 322 | 0.9 | 2.6 | 0.00 | 0.00 | 0.00 | 66 | 1016.2 |
| 20260901153518 | 64 | 269 | 0.0 | 0.9 | 0.00 | 0.00 | 0.00 | 67 | 1016.1 |
| 20260901152519 | 63 | 356 | 0.9 | 1.7 | 0.00 | 0.00 | 0.00 | 67 | 1016.0 |
| 20260901151519 | 63 | 327 | 0.0 | 1.7 | 0.00 | 0.00 | 0.00 | 69 | 1015.9 |
| 20260901150539 | 62 | 323 | 0.9 | 0.9 | 0.00 | 0.00 | 0.00 | 70 | 1015.9 |
| 20260901145520 | 62 | 334 | 0.9 | 0.9 | 0.00 | 0.00 | 0.00 | 72 | 1015.8 |
| 20260901144519 | 61 | 317 | 0.9 | 1.7 | 0.00 | 0.00 | 0.00 | 72 | 1015.7 |
| 20260901143539 | 61 | 328 | 0.9 | 0.9 | 0.00 | 0.00 | 0.00 | 73 | 1015.5 |
| 20260901142519 | 60 | 348 | 0.9 | 2.6 | 0.00 | 0.00 | 0.00 | 73 | 1015.3 |
| 20260901141519 | 60 | 313 | 0.9 | 0.9 | 0.00 | 0.00 | 0.00 | 74 | 1015.2 |
| 20260901140520 | 60 | 340 | 0.9 | 0.9 | 0.00 | 0.00 | 0.00 | 74 | 1015.1 |
| 20260901135600 | 60 | 333 | 0.9 | 1.7 | 0.00 | 0.00 | 0.00 | 73 | 1015.0 |
| 20260901134520 | 60 | 335 | 0.0 | 0.9 | 0.00 | 0.00 | 0.00 | 73 | 1014.9 |
| 20260901133520 | 60 | 319 | 0.0 | 0.9 | 0.00 | 0.00 | 0.00 | 73 | 1014.8 |
| 20260901132520 | 60 | 290 | 0.9 | 0.9 | 0.00 | 0.00 | 0.00 | 73 | 1014.8 |
| 20260901131520 | 60 | 315 | 0.9 | 0.9 | 0.00 | 0.00 | 0.00 | 73 | 1014.7 |
| 20260901130541 | 61 | 309 | 0.9 | 1.7 | 0.00 | 0.00 | 0.00 | 73 | 1014.7 |
| 20260901125540 | 61 | 329 | 0.9 | 0.9 | 0.00 | 0.00 | 0.00 | 73 | 1014.6 |
| 20260901124521 | 61 | 309 | 0.0 | 0.9 | 0.00 | 0.00 | 0.00 | 73 | 1014.5 |
| 20260901123521 | 61 | 315 | 0.9 | 0.9 | 0.00 | 0.00 | 0.00 | 73 | 1014.5 |
| 20260901122521 | 60 | 326 | 0.9 | 0.9 | 0.00 | 0.00 | 0.00 | 73 | 1014.4 |
| 20260901121521 | 60 | 296 | 0.9 | 0.9 | 0.00 | 0.00 | 0.00 | 73 | 1014.4 |
| 20260901120522 | 60 | 282 | 0.9 | 1.7 | 0.00 | 0.00 | 0.00 | 74 | 1014.5 |
| 20260901115521 | 60 | 326 | 0.9 | 0.9 | 0.00 | 0.00 | 0.00 | 75 | 1014.5 |
| 20260901114522 | 60 | 323 | 0.9 | 0.9 | 0.00 | 0.00 | 0.00 | 75 | 1014.5 |
| 20260901113522 | 60 | 328 | 0.9 | 1.7 | 0.00 | 0.00 | 0.00 | 76 | 1014.6 |
| 20260901112521 | 59 | 317 | 0.9 | 1.7 | 0.00 | 0.00 | 0.00 | 77 | 1014.7 |
| 20260901111522 | 59 | 332 | 0.9 | 0.9 | 0.00 | 0.00 | 0.00 | 77 | 1014.7 |
| 20260901110522 | 59 | 294 | 0.9 | 0.9 | 0.00 | 0.00 | 0.00 | 78 | 1014.8 |
| 20260901105542 | 59 | 297 | 0.9 | 1.7 | 0.00 | 0.00 | 0.00 | 79 | 1014.8 |
| 20260901104522 | 59 | 317 | 0.9 | 0.9 | 0.00 | 0.00 | 0.00 | 79 | 1014.7 |
| 20260901103542 | 59 | 308 | 0.9 | 1.7 | 0.00 | 0.00 | 0.00 | 80 | 1014.7 |
| 20260901102523 | 59 | 297 | 0.9 | 0.9 | 0.00 | 0.00 | 0.00 | 80 | 1014.6 |
| 20260901101523 | 59 | 302 | 0.0 | 0.9 | 0.00 | 0.00 | 0.00 | 81 | 1014.6 |
| 20260901100523 | 58 | 338 | 0.9 | 1.7 | 0.00 | 0.00 | 0.00 | 83 | 1014.5 |
| 20260901095543 | 58 | 299 | 0.9 | 0.9 | 0.00 | 0.00 | 0.00 | 83 | 1014.5 |
| 20260901094523 | 58 | 306 | 0.9 | 0.9 | 0.00 | 0.00 | 0.00 | 84 | 1014.5 |
| 20260901093523 | 58 | 298 | 0.9 | 0.9 | 0.00 | 0.00 | 0.00 | 84 | 1014.5 |
| 20260901092524 | 58 | 340 | 0.9 | 0.9 | 0.00 | 0.00 | 0.00 | 85 | 1014.5 |
| 20260901091524 | 57 | 337 | 0.9 | 1.7 | 0.00 | 0.00 | 0.00 | 85 | 1014.6 |
| 20260901090523 | 57 | 323 | 0.9 | 1.7 | 0.00 | 0.00 | 0.00 | 86 | 1014.6 |
| 20260901085524 | 57 | 329 | 0.9 | 0.9 | 0.00 | 0.00 | 0.00 | 87 | 1014.5 |
| 20260901084523 | 57 | 324 | 0.9 | 0.9 | 0.00 | 0.00 | 0.00 | 87 | 1014.6 |
| 20260901083524 | 57 | 321 | 0.9 | 1.7 | 0.00 | 0.00 | 0.00 | 88 | 1014.5 |
| 20260901082524 | 56 | 321 | 0.9 | 0.9 | 0.00 | 0.00 | 0.00 | 89 | 1014.5 |
| 20260901081524 | 56 | 331 | 0.9 | 1.7 | 0.00 | 0.00 | 0.00 | 89 | 1014.5 |
| 20260901080524 | 56 | 327 | 0.9 | 1.7 | 0.00 | 0.00 | 0.00 | 90 | 1014.5 |
| 20260901075524 | 55 | 332 | 0.9 | 1.7 | 0.00 | 0.00 | 0.00 | 90 | 1014.5 |
| 20260901074525 | 55 | 317 | 0.9 | 0.9 | 0.00 | 0.00 | 0.00 | 91 | 1014.5 |
| 20260901073525 | 54 | 320 | 0.9 | 1.7 | 0.00 | 0.00 | 0.00 | 91 | 1014.5 |
| 20260901072605 | 54 | 307 | 0.9 | 0.9 | 0.00 | 0.00 | 0.00 | 91 | 1014.5 |
| 20260901071525 | 54 | 304 | 0.9 | 0.9 | 0.00 | 0.00 | 0.00 | 91 | 1014.5 |
| 20260901070525 | 54 | 310 | 0.9 | 1.7 | 0.00 | 0.00 | 0.00 | 91 | 1014.5 |
| 20260901065525 | 54 | 301 | 0.9 | 1.7 | 0.00 | 0.00 | 0.00 | 91 | 1014.5 |
| 20260901064525 | 54 | 314 | 0.9 | 0.9 | 0.00 | 0.00 | 0.00 | 90 | 1014.6 |
| 20260901063525 | 54 | 293 | 0.9 | 0.9 | 0.00 | 0.00 | 0.00 | 90 | 1014.6 |
| 20260901062526 | 54 | 301 | 0.9 | 0.9 | 0.00 | 0.00 | 0.00 | 89 | 1014.5 |
| 20260901061525 | 54 | 304 | 0.9 | 0.9 | 0.00 | 0.00 | 0.00 | 89 | 1014.6 |
| 20260901060526 | 55 | 315 | 0.9 | 1.7 | 0.00 | 0.00 | 0.00 | 89 | 1014.6 |
| 20260901055546 | 55 | 287 | 0.0 | 0.9 | 0.00 | 0.00 | 0.00 | 88 | 1014.8 |
| 20260901054526 | 55 | 323 | 0.9 | 0.9 | 0.00 | 0.00 | 0.00 | 88 | 1014.9 |
| 20260901053527 | 55 | 284 | 0.9 | 1.7 | 0.00 | 0.00 | 0.00 | 88 | 1014.8 |
| 20260901052526 | 55 | 311 | 0.9 | 1.7 | 0.00 | 0.00 | 0.00 | 87 | 1014.8 |
| 20260901051526 | 56 | 289 | 0.9 | 0.9 | 0.00 | 0.00 | 0.00 | 86 | 1014.6 |
| 20260901050527 | 56 | 278 | 0.9 | 0.9 | 0.00 | 0.00 | 0.00 | 86 | 1014.5 |
| 20260901045527 | 56 | 312 | 0.9 | 1.7 | 0.00 | 0.00 | 0.00 | 86 | 1014.4 |
| 20260901044527 | 56 | 270 | 0.9 | 0.9 | 0.00 | 0.00 | 0.00 | 85 | 1014.3 |
| 20260901043527 | 56 | 317 | 0.9 | 0.9 | 0.00 | 0.00 | 0.00 | 84 | 1014.3 |
| 20260901042529 | 57 | 316 | 0.9 | 1.7 | 0.00 | 0.00 | 0.00 | 83 | 1014.2 |
| 20260901041528 | 57 | 336 | 0.9 | 1.7 | 0.00 | 0.00 | 0.00 | 82 | 1014.3 |
| 20260901040548 | 58 | 300 | 0.9 | 0.9 | 0.00 | 0.00 | 0.00 | 81 | 1014.2 |
| 20260901035528 | 58 | 298 | 0.9 | 0.9 | 0.00 | 0.00 | 0.00 | 80 | 1014.1 |
| 20260901034528 | 59 | 304 | 0.9 | 1.7 | 0.00 | 0.00 | 0.00 | 78 | 1014.0 |
| 20260901033528 | 60 | 309 | 0.9 | 0.9 | 0.00 | 0.00 | 0.00 | 77 | 1013.9 |
| 20260901032548 | 60 | 288 | 0.9 | 0.9 | 0.00 | 0.00 | 0.00 | 76 | 1013.8 |
| 20260901031528 | 61 | 313 | 0.0 | 0.9 | 0.00 | 0.00 | 0.00 | 75 | 1013.7 |
| 20260901030528 | 61 | 347 | 1.7 | 2.6 | 0.00 | 0.00 | 0.00 | 75 | 1013.6 |
| 20260901025548 | 62 | 328 | 0.9 | 1.7 | 0.00 | 0.00 | 0.00 | 73 | 1013.5 |
| 20260901024549 | 62 | 313 | 0.9 | 1.7 | 0.00 | 0.00 | 0.00 | 72 | 1013.6 |
| 20260901023529 | 63 | 343 | 0.9 | 1.7 | 0.00 | 0.00 | 0.00 | 71 | 1013.6 |
| 20260901022529 | 63 | 312 | 0.9 | 1.7 | 0.00 | 0.00 | 0.00 | 71 | 1013.5 |
| 20260901021529 | 63 | 336 | 0.9 | 1.7 | 0.00 | 0.00 | 0.00 | 70 | 1013.4 |
| 20260901020549 | 64 | 341 | 0.9 | 1.7 | 0.00 | 0.00 | 0.00 | 69 | 1013.4 |
| 20260901015529 | 64 | 2 | 0.9 | 2.6 | 0.00 | 0.00 | 0.00 | 68 | 1013.4 |
| 20260901014529 | 65 | 5 | 0.9 | 2.6 | 0.00 | 0.00 | 0.00 | 67 | 1013.4 |
| 20260901013530 | 66 | 339 | 0.9 | 1.7 | 0.00 | 0.00 | 0.00 | 67 | 1013.4 |
| 20260901012530 | 67 | 349 | 1.7 | 3.5 | 0.00 | 0.00 | 0.00 | 65 | 1013.4 |
| 20260901011530 | 68 | 4 | 1.7 | 3.5 | 0.00 | 0.00 | 0.00 | 64 | 1013.4 |
| 20260901010530 | 68 | 357 | 0.9 | 2.6 | 0.00 | 0.00 | 0.00 | 62 | 1013.4 |
| 20260901005521 | 68 | 356 | 1.7 | 5.2 | 0.00 | 0.00 | 0.00 | 62 | 1013.4 |
| 20260901004521 | 68 | 329 | 1.7 | 5.2 | 0.00 | 0.00 | 0.00 | 64 | 1013.3 |
| 20260901003521 | 69 | 7 | 2.6 | 4.3 | 0.00 | 0.00 | 0.00 | 62 | 1013.3 |
| 20260901002521 | 69 | 14 | 1.7 | 6.1 | 0.00 | 0.00 | 0.00 | 61 | 1013.3 |
| 20260901001530 | 70 | 24 | 1.7 | 3.5 | 0.00 | 0.00 | 0.00 | 59 | 1013.3 |
| 20260901000541 | 70 | 327 | 1.7 | 5.2 | 0.00 | 0.00 | 0.00 | 59 | 1013.3 |
| 20260831235531 | 69 | 337 | 1.7 | 3.5 | 0.00 | 0.00 | 0.00 | 60 | 1013.4 |
| 20260831234521 | 69 | 347 | 1.7 | 5.2 | 0.00 | 0.00 | 0.00 | 61 | 1013.3 |
| 20260831233522 | 70 | 11 | 1.7 | 5.2 | 0.00 | 0.00 | 0.00 | 60 | 1013.5 |
| 20260831232522 | 71 | 5 | 1.7 | 5.2 | 0.00 | 0.00 | 0.00 | 58 | 1013.5 |
| 20260831231531 | 71 | 360 | 1.7 | 4.3 | 0.00 | 0.00 | 0.00 | 58 | 1013.5 |
| 20260831230522 | 72 | 352 | 1.7 | 4.3 | 0.00 | 0.00 | 0.00 | 58 | 1013.5 |
| 20260831225531 | 72 | 341 | 1.7 | 3.5 | 0.00 | 0.00 | 0.00 | 56 | 1013.6 |
| 20260831224532 | 72 | 15 | 0.9 | 2.6 | 0.00 | 0.00 | 0.00 | 57 | 1013.7 |
| 20260831223522 | 72 | 356 | 1.7 | 5.2 | 0.00 | 0.00 | 0.00 | 58 | 1013.8 |
| 20260831222517 | 73 | 30 | 1.7 | 2.6 | 0.00 | 0.00 | 0.00 | 56 | 1013.9 |
| 20260831221517 | 72 | 319 | 1.7 | 3.5 | 0.00 | 0.00 | 0.00 | 57 | 1014.0 |
| 20260831220517 | 72 | 6 | 1.7 | 2.6 | 0.00 | 0.00 | 0.00 | 56 | 1014.2 |
| 20260831215537 | 72 | 10 | 0.9 | 2.6 | 0.00 | 0.00 | 0.00 | 57 | 1014.3 |
| 20260831214517 | 71 | 342 | 0.9 | 2.6 | 0.00 | 0.00 | 0.00 | 59 | 1014.3 |
| 20260831213517 | 70 | 5 | 1.7 | 4.3 | 0.00 | 0.00 | 0.00 | 61 | 1014.5 |
| 20260831212523 | 71 | 4 | 1.7 | 4.3 | 0.00 | 0.00 | 0.00 | 61 | 1014.5 |
| 20260831211517 | 72 | 351 | 1.7 | 6.1 | 0.00 | 0.00 | 0.00 | 59 | 1014.6 |
| 20260831210518 | 72 | 353 | 0.9 | 3.5 | 0.00 | 0.00 | 0.00 | 58 | 1014.7 |
| 20260831205518 | 71 | 7 | 0.9 | 2.6 | 0.00 | 0.00 | 0.00 | 59 | 1014.8 |
| 20260831204518 | 70 | 195 | 1.7 | 4.3 | 0.00 | 0.00 | 0.00 | 61 | 1014.7 |
| 20260831203538 | 69 | 17 | 1.7 | 3.5 | 0.00 | 0.00 | 0.00 | 63 | 1014.8 |
| 20260831202538 | 68 | 356 | 0.9 | 4.3 | 0.00 | 0.00 | 0.00 | 65 | 1014.9 |
| 20260831201516 | 67 | 343 | 0.9 | 5.2 | 0.00 | 0.00 | 0.00 | 67 | 1014.9 |